KE0YJJ-14 Weather Reports


time (UTC)temp
F
wind
direction
speed
knots
gust
knots
rain 1hr
in
rain 24hr
in
rain mn
in
humidity
%
barometer
mb
20260906175643 76 57 3.5 6.1 0.00 0.00 0.00 62
20260906175138 77 74 1.7 2.6 0.00 0.00 0.00 63
20260906174636 77 55 3.5 5.2 0.00 0.00 0.00 63
20260906174131 77 80 2.6 2.6 0.00 0.00 0.00 61
20260906173626 76 72 2.6 4.3 0.00 0.00 0.00 59
20260906173122 77 52 6.1 7.0 0.00 0.00 0.00 59
20260906172616 77 52 6.1 7.0 0.00 0.00 0.00 56
20260906172112 76 64 5.2 6.1 0.00 0.00 0.00 57
20260906171611 76 64 5.2 6.1 0.00 0.00 0.00 57
20260906171106 76 64 5.2 6.1 0.00 0.00 0.00 59
20260906170602 76 44 4.3 7.8 0.00 0.00 0.00 60
20260906170056 76 33 4.3 8.7 0.00 0.00 0.00 60
20260906165553 75 47 4.3 6.1 0.00 0.00 0.00 62
20260906165053 75 56 5.2 6.1 0.00 0.00 0.00 62
20260906164552 75 75 3.5 4.3 0.00 0.00 0.00 65
20260906164048 75 66 3.5 5.2 0.00 0.00 0.00 67
20260906163543 74 54 6.1 7.8 0.00 0.00 0.00 69
20260906163039 74 31 6.1 7.8 0.00 0.00 0.00 70
20260906162536 73 32 4.3 5.2 0.00 0.00 0.00 71
20260906162031 73 36 3.5 5.2 0.00 0.00 0.00 75
20260906161526 73 66 4.3 6.1 0.00 0.00 0.00 76
20260906161025 73 62 2.6 4.3 0.00 0.00 0.00 76
20260906160524 73 51 4.3 6.1 0.00 0.00 0.00 75
20260906160023 73 51 4.3 6.1 0.00 0.00 0.00 72
20260906155520 73 47 2.6 2.6 0.00 0.00 0.00 72
20260906155016 73 54 3.5 4.3 0.00 0.00 0.00 71
20260906154512 73 43 4.3 6.1 0.00 0.00 0.00 71
20260906154011 73 43 4.3 6.1 0.00 0.00 0.00 69
20260906153510 72 83 4.3 5.2 0.00 0.00 0.00 71
20260906153005 72 83 4.3 5.2 0.00 0.00 0.00 73
20260906152505 72 83 4.3 5.2 0.00 0.00 0.00 74
20260906152004 71 88 2.6 4.3 0.00 0.00 0.00 74
20260906151500 71 88 2.6 4.3 0.00 0.00 0.00 77
20260906150955 71 88 2.6 4.3 0.00 0.00 0.00 79
20260906150450 71 91 1.7 4.3 0.00 0.00 0.00 80
20260906145950 70 82 2.6 6.1 0.00 0.00 0.00 79
20260906145449 70 46 4.3 6.1 0.00 0.00 0.00 79
20260906144943 71 84 2.6 5.2 0.00 0.00 0.00 80
20260906144438 70 53 2.6 5.2 0.00 0.00 0.00 83
20260906143934 70 74 2.6 5.2 0.00 0.00 0.00 85
20260906143429 69 62 1.7 1.7 0.00 0.00 0.00 88
20260906142925 69 43 4.3 7.8 0.00 0.00 0.00 88
20260906142425 69 30 4.3 7.0 0.00 0.00 0.00 89
20260906141920 69 51 4.3 6.1 0.00 0.00 0.00 89
20260906141414 69 40 5.2 7.0 0.00 0.00 0.00 90
20260906140914 69 45 2.6 2.6 0.00 0.00 0.00 90
20260906140409 69 39 2.6 6.1 0.00 0.00 0.00 92
20260906135907 69 65 0.9 2.6 0.00 0.00 0.00 94
20260906135406 69 34 2.6 4.3 0.00 0.00 0.00 94
20260906134902 69 59 2.6 4.3 0.00 0.00 0.00 94
20260906134357 68 26 4.3 6.1 0.00 0.00 0.00 94
20260906133852 68 65 1.7 4.3 0.00 0.00 0.00 95
20260906133348 68 35 5.2 7.8 0.00 0.00 0.00 95
20260906132843 68 29 5.2 7.0 0.00 0.00 0.00 96
20260906132338 68 48 4.3 5.2 0.00 0.00 0.00 96
20260906131834 68 59 4.3 7.0 0.00 0.00 0.00 96
20260906131329 68 66 2.6 5.2 0.00 0.00 0.00 96
20260906130825 68 40 4.3 7.0 0.00 0.00 0.00 97
20260906130324 68 37 4.3 7.0 0.00 0.00 0.00 97
20260906125823 68 43 6.1 6.1 0.00 0.00 0.00 97
20260906125320 68 27 4.3 7.8 0.00 0.00 0.00 97
20260906124816 68 39 4.3 6.1 0.00 0.00 0.00 98
20260906124312 68 64 4.3 7.0 0.00 0.00 0.00 98
20260906123810 68 53 3.5 6.1 0.00 0.00 0.00 98
20260906123305 68 31 5.2 6.1 0.00 0.00 0.00 98
20260906122805 68 64 3.5 8.7 0.00 0.00 0.00 98
20260906122301 68 59 6.1 8.7 0.00 0.00 0.00 98
20260906121757 67 55 3.5 5.2 0.00 0.00 0.00 98
20260906121247 67 54 4.3 5.2 0.00 0.00 0.00 98
20260906120742 67 44 3.5 4.3 0.00 0.00 0.00 98
20260906120239 67 58 0.9 4.3 0.00 0.00 0.00 98
20260906115735 67 66 2.6 2.6 0.00 0.00 0.00 98
20260906115230 67 68 1.7 2.6 0.00 0.00 0.00 98
20260906114728 67 68 0.9 2.6 0.00 0.00 0.00 98
20260906114224 67 57 2.6 5.2 0.00 0.00 0.00 98
20260906113719 67 66 1.7 4.3 0.00 0.00 0.00 98
20260906113219 67 38 1.7 2.6 0.00 0.00 0.00 98
20260906112713 66 35 1.7 2.6 0.00 0.00 0.00 98
20260906112210 66 36 1.7 1.7 0.00 0.00 0.00 98
20260906111709 66 351 2.6 2.6 0.00 0.00 0.00 98
20260906111204 66 63 2.6 2.6 0.00 0.00 0.00 98
20260906110658 65 65 1.7 1.7 0.00 0.00 0.00 98
20260906110154 66 65 0.0 1.7 0.00 0.00 0.00 98
20260906105647 66 65 0.9 0.9 0.00 0.00 0.00 98
20260906105144 66 65 0.9 1.7 0.00 0.00 0.00 98
20260906104643 66 65 0.0 0.9 0.00 0.00 0.00 98
20260906104143 66 65 0.0 0.0 0.00 0.00 0.00 98
20260906103641 66 65 0.0 0.0 0.00 0.00 0.00 98
20260906103136 67 65 0.0 0.9 0.00 0.00 0.00 98
20260906102632 67 65 0.9 0.9 0.00 0.00 0.00 98
20260906102131 67 64 1.7 1.7 0.00 0.00 0.00 98
20260906101631 67 64 0.9 2.6 0.00 0.00 0.00 98
20260906101131 67 39 1.7 1.7 0.00 0.00 0.00 98
20260906100627 67 37 0.0 2.6 0.00 0.00 0.00 98
20260906100122 67 33 0.9 1.7 0.00 0.00 0.00 98
20260906095621 67 34 0.9 2.6 0.00 0.00 0.00 98
20260906095117 67 11 2.6 2.6 0.00 0.00 0.00 98
20260906094616 67 51 2.6 2.6 0.00 0.00 0.00 98
20260906094112 67 33 2.6 2.6 0.00 0.00 0.00 98
20260906093608 67 9 2.6 5.2 0.00 0.00 0.00 98
20260906093103 67 21 2.6 2.6 0.00 0.00 0.00 98
20260906092558 67 338 2.6 2.6 0.00 0.00 0.00 98
20260906092053 67 340 1.7 1.7 0.00 0.00 0.00 98
20260906091549 67 338 1.7 1.7 0.00 0.00 0.00 98
20260906091045 67 345 1.7 2.6 0.00 0.00 0.00 98
20260906090539 67 338 2.6 2.6 0.00 0.00 0.00 98
20260906090034 67 19 2.6 4.3 0.00 0.00 0.00 98
20260906085533 67 6 2.6 4.3 0.00 0.00 0.00 98
20260906085032 67 345 2.6 5.2 0.00 0.00 0.00 98
20260906084527 67 357 3.5 4.3 0.00 0.00 0.00 98
20260906084026 68 0 2.6 4.3 0.00 0.00 0.00 98
20260906083522 68 354 2.6 2.6 0.00 0.00 0.00 98
20260906083021 68 28 4.3 6.1 0.00 0.00 0.00 98
20260906082516 68 11 1.7 4.3 0.00 0.00 0.00 98
20260906082012 68 3 2.6 2.6 0.00 0.00 0.00 98
20260906081508 68 32 2.6 4.3 0.00 0.00 0.00 98
20260906081003 68 22 2.6 4.3 0.00 0.00 0.00 97
20260906080500 68 75 1.7 1.7 0.00 0.00 0.00 97
20260906075955 68 27 2.6 4.3 0.00 0.00 0.00 97
20260906075450 68 74 0.9 0.9 0.00 0.00 0.00 97
20260906074945 68 32 2.6 2.6 0.00 0.00 0.00 97
20260906074444 68 74 1.7 1.7 0.00 0.00 0.00 97
20260906073943 68 74 0.9 1.7 0.00 0.00 0.00 97
20260906073438 68 70 1.7 1.7 0.00 0.00 0.00 97
20260906072934 68 72 1.7 2.6 0.00 0.00 0.00 97
20260906072429 68 72 1.7 2.6 0.00 0.00 0.00 97
20260906071925 68 59 2.6 5.2 0.00 0.00 0.00 97
20260906071421 68 45 1.7 2.6 0.00 0.00 0.00 97
20260906070917 68 35 3.5 4.3 0.00 0.00 0.00 97
20260906070413 68 68 1.7 2.6 0.00 0.00 0.00 97
20260906065908 68 71 1.7 1.7 0.00 0.00 0.00 97
20260906065402 68 71 0.9 2.6 0.00 0.00 0.00 97
20260906064858 68 70 1.7 2.6 0.00 0.00 0.00 97
20260906064355 68 67 1.7 2.6 0.00 0.00 0.00 97
20260906063854 68 69 0.9 1.7 0.00 0.00 0.00 97
20260906063349 68 68 0.9 1.7 0.00 0.00 0.00 97
20260906062844 68 68 0.9 1.7 0.00 0.00 0.00 97
20260906062344 68 68 0.9 1.7 0.00 0.00 0.00 97
20260906061839 68 67 0.9 1.7 0.00 0.00 0.00 97
20260906061336 68 67 0.9 1.7 0.00 0.00 0.00 97
20260906060830 68 67 0.0 0.0 0.00 0.00 0.00 97
20260906060328 68 67 0.0 0.9 0.00 0.00 0.00 97
20260906055824 68 66 1.7 1.7 0.00 0.00 0.00 97
20260906055319 68 34 2.6 2.6 0.00 0.00 0.00 97
20260906054814 68 26 1.7 1.7 0.00 0.00 0.00 97
20260906054309 68 0 0.9 2.6 0.00 0.00 0.00 97
20260906053806 68 34 1.7 2.6 0.00 0.00 0.00 97
20260906053301 68 63 1.7 1.7 0.00 0.00 0.00 97
20260906052756 68 45 0.9 1.7 0.00 0.00 0.00 97
20260906052252 68 349 0.9 0.9 0.00 0.00 0.00 97
20260906051749 69 349 0.0 0.0 0.00 0.00 0.00 97
20260906051249 69 349 0.0 0.0 0.00 0.00 0.00 97
20260906050744 69 349 0.9 0.9 0.00 0.00 0.00 97
20260906050239 69 349 0.9 1.7 0.00 0.00 0.00 97
20260906045738 69 349 0.0 1.7 0.00 0.00 0.00 97
20260906045233 69 349 1.7 1.7 0.00 0.00 0.00 97
20260906044729 69 349 1.7 1.7 0.00 0.00 0.00 97
20260906044224 69 349 0.9 1.7 0.00 0.00 0.00 97
20260906043720 69 349 0.9 2.6 0.00 0.00 0.00 97
20260906043216 69 350 1.7 1.7 0.00 0.00 0.00 97
20260906042715 70 350 0.9 1.7 0.00 0.00 0.00 96
20260906042214 70 352 1.7 1.7 0.00 0.00 0.00 96
20260906041710 70 355 1.7 2.6 0.00 0.00 0.00 97
20260906041205 70 5 2.6 4.3 0.00 0.00 0.00 97
20260906040701 70 1 1.7 1.7 0.00 0.00 0.00 97
20260906040156 70 0 0.9 0.9 0.00 0.00 0.00 96
20260906035651 70 0 0.9 1.7 0.00 0.00 0.00 96
20260906035147 70 1 0.0 0.9 0.00 0.00 0.00 96
20260906034641 70 1 0.9 0.9 0.00 0.00 0.00 96
20260906034135 70 1 0.9 0.9 0.00 0.00 0.00 96
20260906033631 71 1 0.0 0.0 0.00 0.00 0.00 96
20260906033126 71 1 0.0 0.0 0.00 0.00 0.00 96
20260906032623 71 1 0.0 0.0 0.00 0.00 0.00 96
20260906032123 71 1 0.0 0.0 0.00 0.00 0.00 96
20260906031618 71 1 0.0 0.0 0.00 0.00 0.00 95
20260906031114 71 1 0.0 0.0 0.00 0.00 0.00 94
20260906030612 71 1 0.0 0.0 0.00 0.00 0.00 94
20260906030108 71 1 0.0 0.0 0.00 0.00 0.00 94
20260906025607 71 1 0.0 0.0 0.00 0.00 0.00 94
20260906025106 71 1 0.0 0.0 0.00 0.00 0.00 94
20260906024601 71 1 0.0 0.0 0.00 0.00 0.00 94
20260906024056 71 1 0.0 0.0 0.00 0.00 0.00 94
20260906023552 71 1 0.0 0.0 0.00 0.00 0.00 94
20260906023046 71 1 0.0 0.0 0.00 0.00 0.00 94
20260906022542 71 1 0.0 0.0 0.00 0.00 0.00 95
20260906022037 71 1 0.0 0.0 0.00 0.00 0.00 95
20260906021533 71 1 0.0 0.9 0.00 0.00 0.00 94
20260906021031 71 1 0.0 0.0 0.00 0.00 0.00 94
20260906020531 71 1 0.0 0.0 0.00 0.00 0.00 94
20260906020030 71 1 0.0 0.0 0.00 0.00 0.00 94
20260906015529 71 1 0.9 0.9 0.00 0.00 0.00 94
20260906015024 71 1 0.9 1.7 0.00 0.00 0.00 94
20260906014519 72 2 1.7 1.7 0.00 0.00 0.00 94
20260906014015 72 2 1.7 1.7 0.00 0.00 0.00 93
20260906013510 72 1 1.7 1.7 0.00 0.00 0.00 93
20260906013006 73 1 0.0 0.0 0.00 0.00 0.00 92
20260906012501 73 1 0.9 0.9 0.00 0.00 0.00 92
20260906011959 73 1 0.0 0.9 0.00 0.00 0.00 91
20260906011455 73 1 0.0 0.0 0.00 0.00 0.00 90
20260906010950 73 1 0.0 0.0 0.00 0.00 0.00 90
20260906010445 73 1 0.0 0.0 0.00 0.00 0.00 90
20260906005942 73 2 0.9 1.7 0.00 0.00 0.00 90
20260906005441 73 2 0.9 1.7 0.00 0.00 0.00 90
20260906004939 73 2 0.9 1.7 0.00 0.00 0.00 90
20260906004434 73 2 0.9 1.7 0.00 0.00 0.00 89
20260906003930 73 1 0.9 0.9 0.00 0.00 0.00 89
20260906003430 73 1 0.0 0.9 0.00 0.00 0.00 89
20260906002926 73 3 1.7 1.7 0.00 0.00 0.00 88
20260906002425 73 3 1.7 1.7 0.00 0.00 0.00 87
20260906001920 74 5 2.6 2.6 0.00 0.00 0.00 87
20260906001416 74 24 2.6 2.6 0.00 0.00 0.00 86
20260906000911 74 24 2.6 2.6 0.00 0.00 0.00 85
20260906000406 74 23 3.5 5.2 0.00 0.00 0.00 84
20260905235901 75 21 2.6 4.3 0.00 0.00 0.00 83
20260905235355 75 32 2.6 2.6 0.00 0.00 0.00 83
20260905234850 75 355 1.7 2.6 0.00 0.00 0.00 82
20260905234345 76 22 2.6 2.6 0.00 0.00 0.00 81
20260905233840 76 32 1.7 4.3 0.00 0.00 0.00 80
20260905233335 77 47 3.5 5.2 0.00 0.00 0.00 80
20260905232834 77 47 3.5 5.2 0.00 0.00 0.00 79
20260905232331 76 345 4.3 5.2 0.00 0.00 0.00 79
20260905231826 76 345 4.3 5.2 0.00 0.00 0.00 79
20260905231321 77 30 6.1 7.0 0.00 0.00 0.00 79
20260905230818 76 28 2.6 2.6 0.00 0.00 0.00 79
20260905230315 76 15 6.1 8.7 0.00 0.00 0.00 80
20260905225815 76 9 7.0 8.7 0.00 0.00 0.00 80
20260905225310 76 3 7.0 7.8 0.00 0.00 0.00 81
20260905224810 76 49 3.5 7.8 0.00 0.00 0.00 81
20260905224305 76 353 3.5 7.0 0.00 0.00 0.00 81
20260905223800 76 51 6.1 8.7 0.00 0.00 0.00 81
20260905223258 76 7 5.2 13.9 0.00 0.00 0.00 81
20260905222753 76 348 7.0 9.6 0.00 0.00 0.00 80
20260905222252 77 356 7.0 13.0 0.00 0.00 0.00 81
20260905221748 77 32 5.2 7.8 0.00 0.00 0.00 81
20260905221244 77 8 4.3 7.8 0.00 0.00 0.00 82
20260905220740 77 317 2.6 4.3 0.00 0.00 0.00 81
20260905220236 77 354 3.5 6.1 0.00 0.00 0.00 82
20260905215735 77 353 3.5 11.3 0.00 0.00 0.00 82
20260905215231 77 340 8.7 12.2 0.00 0.00 0.00 81
20260905214722 77 10 4.3 5.2 0.00 0.00 0.00 80
20260905214217 77 358 3.5 6.1 0.00 0.00 0.00 80
20260905213712 77 6 4.3 7.8 0.00 0.00 0.00 79
20260905213208 78 343 4.3 7.8 0.00 0.00 0.00 79
20260905212702 78 350 7.0 7.8 0.00 0.00 0.00 80
20260905212202 77 8 4.3 12.2 0.00 0.00 0.00 79
20260905211656 77 14 5.2 7.0 0.00 0.00 0.00 80
20260905211152 77 353 3.5 7.0 0.00 0.00 0.00 80
20260905210649 78 338 3.5 7.0 0.00 0.00 0.00 81
20260905210148 78 346 4.3 7.8 0.00 0.00 0.00 80
20260905205648 78 311 2.6 5.2 0.00 0.00 0.00 79
20260905205147 78 326 4.3 5.2 0.00 0.00 0.00 79
20260905204646 78 285 2.6 9.6 0.00 0.00 0.00 78
20260905204142 78 344 4.3 7.0 0.00 0.00 0.00 78
20260905203637 78 327 3.5 7.0 0.00 0.00 0.00 78
20260905203133 78 342 3.5 7.0 0.00 0.00 0.00 77
20260905202628 78 303 2.6 2.6 0.00 0.00 0.00 76
20260905202123 78 316 2.6 7.0 0.00 0.00 0.00 75
20260905201619 78 326 2.6 5.2 0.00 0.00 0.00 74
20260905201118 78 32 4.3 5.2 0.00 0.00 0.00 75
20260905200614 78 20 1.7 2.6 0.00 0.00 0.00 73
20260905200108 78 342 1.7 6.1 0.00 0.00 0.00 73
20260905195602 78 3 2.6 6.1 0.00 0.00 0.00 73
20260905195057 78 19 2.6 2.6 0.00 0.00 0.00 72
20260905194557 78 349 1.7 1.7 0.00 0.00 0.00 71
20260905194056 78 349 1.7 4.3 0.00 0.00 0.00 70
20260905193551 78 3 0.9 2.6 0.00 0.00 0.00 69
20260905193047 78 351 0.9 2.6 0.00 0.00 0.00 68
20260905192542 79 2 1.7 2.6 0.00 0.00 0.00 66
20260905192038 78 27 1.7 4.3 0.00 0.00 0.00 68
20260905191536 78 3 3.5 4.3 0.00 0.00 0.00 66
20260905191035 78 43 0.9 1.7 0.00 0.00 0.00 67
20260905190534 78 38 2.6 4.3 0.00 0.00 0.00 70
20260905190033 78 353 2.6 2.6 0.00 0.00 0.00 71
20260905185533 78 36 1.7 1.7 0.00 0.00 0.00 67
20260905185033 78 357 2.6 2.6 0.00 0.00 0.00 66
20260905184527 77 24 2.6 5.2 0.00 0.00 0.00 66
20260905184026 77 18 2.6 5.2 0.00 0.00 0.00 64
20260905183525 78 0 4.3 7.0 0.00 0.00 0.00 63
20260905183021 78 33 2.6 6.1 0.00 0.00 0.00 63
20260905182515 78 358 3.5 5.2 0.00 0.00 0.00 63
20260905182009 77 28 3.5 5.2 0.00 0.00 0.00 65
20260905181504 78 16 4.3 6.1 0.00 0.00 0.00 68
20260905181003 78 0 4.3 7.0 0.00 0.00 0.00 66
20260905180458 77 331 4.3 6.1 0.00 0.00 0.00 65